Regional Weather Roundup
Issued by NWS

Home | Current Version | Previous Version | Graphics & Text | Print | Product List | Glossary On
Versions: 1 2 3 4 5 6 7 8 9 10 11 12 13 14 15 16 17 18 19 20 21 22 23 24 25 26 27 28 29 30 31 32 33 34 35 36 37 38 39 40 41 42 43 44 45 46 47 48 49 50
000
ASUS43 KBIS 251020
RWRND

NORTH DAKOTA REGIONAL WEATHER ROUNDUP
NATIONAL WEATHER SERVICE BISMARCK ND
500 AM CDT SAT OCT 25 2014

NOTE: "FAIR" INDICATES FEW OR NO CLOUDS BELOW 12,000 FEET WITH NO
SIGNIFICANT WEATHER AND/OR OBSTRUCTIONS TO VISIBILITY.


NDZ001>003-009>011-017-251100-
NORTHWEST NORTH DAKOTA

CITY           SKY/WX    TMP DP  RH WIND       PRES   REMARKS
WILLISTON      MOCLDY    41  30  65 CALM      30.10R
MINOT          MOCLDY    43  30  60 W12       30.06R
MINOT AFB      MOCLDY    40  32  72 NW9       30.06R
$$

NDZ018>021-031>035-040>046-251100-
SOUTHWEST NORTH DAKOTA

CITY           SKY/WX    TMP DP  RH WIND       PRES   REMARKS
BISMARCK       MOCLDY    45  32  60 NW6       30.10S
DICKINSON      MOCLDY    44  32  62 W6        30.10R
GARRISON         N/A     41  31  67 NW7       30.09R
HETTINGER ARPT CLEAR     38  30  73 NW5       30.14S
$$

NDZ004>008-012>016-024-026-027-054-251100-
NORTHEAST NORTH DAKOTA

CITY           SKY/WX    TMP DP  RH WIND       PRES   REMARKS
GRAND FORKS    PTCLDY    43  33  68 W9        29.99R
GRND FRKS AFB  MOCLDY    45  34  64 NW9       30.00R
DEVILS LAKE    PTCLDY    43  30  61 W12       30.02R
$$

NDZ022-023-025-028>030-036>039-047>053-251100-
SOUTHEAST NORTH DAKOTA

CITY           SKY/WX    TMP DP  RH WIND       PRES   REMARKS
FARGO          PTCLDY    43  32  65 W10       30.02R
JAMESTOWN      CLEAR     41  34  76 NW7       30.05S
$$




USA.gov is the U.S. government's official web portal to all federal, state and local government web resources and services.